Погода в Праге

Чехия     50°04′49″N   14°25′44″E
темп.,
°C
ветер,
м/с
пор.,
м/с
влажн.,
%
обл.,
%
осадки,
мм/ч
давл.,
гПа
погр.,
м
20 мая, пт
пт2023:00+16ююв3472100 0.0 102074
02:00+17с248099 0.0 1020123
05:00+15ююз2389100 0.0 102146
08:00+19зюз247490 0.0 1022294
11:00+24з2357100 0.0 1021904
14:00+27з3548100 0.0 10191394
17:00+28з364692 0.0 10161684
20:00+24ююз395988 0.0 1014279
21 мая, сб
сб2123:00+21ююз31071100 0.0 1013244
02:00+18з7148863 1.5 1014700
05:00+14зсз6118667 0.2 1018659
08:00+14з710685 0.3 10211082
11:00+18з6105077 0.0 10201678
14:00+21з7123859 0.0 10192542
17:00+21з7104073 0.0 10182451
20:00+17ссз585555 0.0 1019767
22 мая, вс
вс2223:00+12зсз2668100 0.0 1020280
02:00+11з23775 0.0 1019117
05:00+9юз22823 0.0 101949
08:00+13з23656 0.0 1018429
11:00+17ссз355026 0.0 10171668
14:00+20ссз364176 0.0 10152200
17:00+20с454095 0.0 10141907
20:00+16ссв3650100 0.0 1014301
23 мая, пн
пн2323:00+12в116179 0.0 101517
02:00+10в116612 0.0 101417
05:00+9вюв117152 0.0 101416
08:00+14в2358100 0.0 1012291
11:00+18юв454880 0.0 1010955
14:00+23юв554392 0.0 10071610
17:00+20юв375675 0.1 1005501
20:00+18ю3766100 0.1 1006265
24 мая, вт
вт2423:00+15ююз258952 0.1 1006166
02:00+14юз3993100 0.1 1006254
05:00+14зюз41094100 0.0 1007372
08:00+17зюз3677100 0.0 1008517
11:00+20з5662100 0.1 10091374
14:00+19з7868100 0.3 1010964
17:00+16зюз4892100 2.6 1011488
20:00+14ююз2494100 5.2 1012144